• In Russia
  • List of Countries
  • For 7 days
  • Water Temperature
  • Satellite Maps
  • Weather Map
  • Weather Widgets
  • user-avatar
    Login

    Hourly Weather Pernik

    Today, 26 March, Tuesday

    Time Temperature Precipitation Wind Pressure Humidity
    00:00 +11°C° 0 mm 1 mps 685 mmHg 52%
    01:00 +10°C° 0 mm 1 mps 685 mmHg 56%
    02:00 +9°C° 0 mm 2 mps 686 mmHg 62%
    03:00 +8°C° 0 mm 2 mps 686 mmHg 64%
    04:00 +7°C° 0 mm 2 mps 686 mmHg 66%
    05:00 +7°C° 0 mm 3 mps 686 mmHg 68%
    06:00 +5°C° 0 mm 3 mps 687 mmHg 69%
    07:00 +5°C° 0 mm 3 mps 687 mmHg 71%
    08:00 +5°C° 0 mm 3 mps 688 mmHg 72%
    09:00 +7°C° 0 mm 3 mps 688 mmHg 66%
    10:00 +8°C° 0 mm 3 mps 688 mmHg 60%
    11:00 +8°C° 0 mm 4 mps 689 mmHg 55%
    12:00 +10°C° 0 mm 4 mps 689 mmHg 52%
    13:00 +10°C° 0 mm 4 mps 689 mmHg 49%
    14:00 +10°C° 0 mm 5 mps 689 mmHg 46%
    15:00 +9°C° 0 mm 5 mps 689 mmHg 48%
    16:00 +9°C° 0 mm 5 mps 689 mmHg 50%
    17:00 +9°C° 0 mm 5 mps 689 mmHg 51%
    18:00 +8°C° 0 mm 4 mps 690 mmHg 53%
    19:00 +7°C° 0 mm 4 mps 690 mmHg 55%
    20:00 +7°C° 0 mm 3 mps 690 mmHg 56%
    21:00 +5°C° 0 mm 3 mps 691 mmHg 57%
    22:00 +5°C° 0 mm 2 mps 691 mmHg 57%
    23:00 +4°C° 0 mm 2 mps 691 mmHg 57%

    Tomorrow, 27 March, Wednesday

    Time Temperature Precipitation Wind Pressure Humidity
    00:00 +4°C° 0 mm 2 mps 692 mmHg 58%
    01:00 +3°C° 0 mm 2 mps 692 mmHg 59%
    02:00 +4°C° 0 mm 1 mps 692 mmHg 60%
    03:00 +4°C° 0 mm 1 mps 692 mmHg 62%
    04:00 +3°C° 0 mm 1 mps 692 mmHg 64%
    05:00 +3°C° 0 mm 1 mps 692 mmHg 67%
    06:00 +2°C° 0 mm 2 mps 693 mmHg 65%
    07:00 +3°C° 0 mm 2 mps 693 mmHg 63%
    08:00 +3°C° 0 mm 2 mps 693 mmHg 61%
    09:00 +5°C° 0 mm 2 mps 694 mmHg 54%
    10:00 +5°C° 0 mm 3 mps 694 mmHg 47%
    11:00 +8°C° 0 mm 3 mps 695 mmHg 40%
    12:00 +8°C° 0 mm 3 mps 694 mmHg 37%
    13:00 +9°C° 0 mm 3 mps 694 mmHg 34%
    14:00 +10°C° 0 mm 3 mps 694 mmHg 31%
    15:00 +10°C° 0 mm 4 mps 694 mmHg 33%
    16:00 +8°C° 0 mm 4 mps 694 mmHg 36%
    17:00 +8°C° 0 mm 4 mps 694 mmHg 38%
    18:00 +8°C° 0 mm 3 mps 694 mmHg 45%
    19:00 +5°C° 0 mm 3 mps 694 mmHg 52%
    20:00 +5°C° 0 mm 2 mps 694 mmHg 60%
    21:00 +4°C° 0 mm 2 mps 695 mmHg 62%
    22:00 +3°C° 0 mm 2 mps 695 mmHg 63%
    23:00 +3°C° 0 mm 2 mps 695 mmHg 65%

    Day after tomorrow, 28 March, Thursday

    Time Temperature Precipitation Wind Pressure Humidity
    00:00 +2°C° 0 mm 2 mps 695 mmHg 64%
    01:00 +1°C° 0 mm 2 mps 696 mmHg 64%
    02:00 +2°C° 0 mm 1 mps 696 mmHg 63%
    03:00 +2°C° 0 mm 1 mps 696 mmHg 62%
    04:00 +1°C° 0 mm 1 mps 696 mmHg 62%
    05:00 +1°C° 0 mm 1 mps 696 mmHg 62%
    06:00 +1°C° 0 mm 2 mps 696 mmHg 58%
    07:00 +2°C° 0 mm 2 mps 697 mmHg 55%
    08:00 +2°C° 0 mm 2 mps 697 mmHg 51%
    09:00 +4°C° 0 mm 2 mps 698 mmHg 47%
    10:00 +5°C° 0 mm 3 mps 698 mmHg 44%
    11:00 +7°C° 0 mm 4 mps 698 mmHg 40%
    12:00 +7°C° 0 mm 4 mps 698 mmHg 39%
    13:00 +8°C° 0 mm 4 mps 698 mmHg 37%
    14:00 +9°C° 0 mm 5 mps 698 mmHg 36%
    15:00 +8°C° 0 mm 5 mps 697 mmHg 38%
    16:00 +8°C° 0 mm 5 mps 697 mmHg 40%
    17:00 +7°C° 0 mm 5 mps 696 mmHg 42%
    18:00 +5°C° 0 mm 5 mps 697 mmHg 45%
    19:00 +4°C° 0 mm 4 mps 697 mmHg 49%
    20:00 +1°C° 0 mm 4 mps 697 mmHg 52%
    21:00 +2°C° 0 mm 3 mps 697 mmHg 54%
    22:00 +1°C° 0 mm 3 mps 698 mmHg 57%
    23:00 +1°C° 0 mm 2 mps 698 mmHg 59%

    29 March, Friday

    Time Temperature Precipitation Wind Pressure Humidity
    00:00 +1°C° 0 mm 2 mps 698 mmHg 60%
    01:00 +1°C° 0 mm 2 mps 698 mmHg 61%
    02:00 -1°C° 0 mm 2 mps 698 mmHg 61%
    03:00 -1°C° 0 mm 2 mps 698 mmHg 61%
    04:00 -1°C° 0 mm 2 mps 698 mmHg 61%
    05:00 -2°C° 0 mm 2 mps 698 mmHg 61%
    06:00 -1°C° 0 mm 2 mps 699 mmHg 57%
    07:00 0°C° 0 mm 3 mps 699 mmHg 53%
    08:00 +1°C° 0 mm 3 mps 699 mmHg 49%
    09:00 +1°C° 0 mm 4 mps 699 mmHg 46%
    10:00 +3°C° 0 mm 5 mps 700 mmHg 43%
    11:00 +4°C° 0 mm 6 mps 700 mmHg 40%
    12:00 +5°C° 0 mm 6 mps 699 mmHg 39%
    13:00 +5°C° 0 mm 6 mps 699 mmHg 37%
    14:00 +7°C° 0 mm 6 mps 698 mmHg 35%
    15:00 +7°C° 0 mm 6 mps 698 mmHg 37%
    16:00 +5°C° 0 mm 6 mps 697 mmHg 38%
    17:00 +5°C° 0 mm 6 mps 697 mmHg 39%
    18:00 +3°C° 0 mm 5 mps 697 mmHg 45%
    19:00 +3°C° 0 mm 4 mps 697 mmHg 51%
    20:00 +1°C° 0 mm 3 mps 697 mmHg 57%
    21:00 +2°C° 0 mm 2 mps 697 mmHg 60%
    22:00 +1°C° 0 mm 2 mps 698 mmHg 62%
    23:00 +2°C° 0 mm 1 mps 698 mmHg 64%

    30 March, Saturday

    Time Temperature Precipitation Wind Pressure Humidity
    00:00 +1°C° 0 mm 1 mps 697 mmHg 65%
    01:00 +1°C° 0 mm 1 mps 697 mmHg 65%
    02:00 +1°C° 0 mm 1 mps 697 mmHg 66%
    03:00 +1°C° 0 mm 1 mps 697 mmHg 67%
    04:00 +1°C° 0 mm 1 mps 697 mmHg 67%
    05:00 0°C° 0 mm 1 mps 697 mmHg 68%
    06:00 +2°C° 0 mm 1 mps 697 mmHg 64%
    07:00 +2°C° 0 mm 2 mps 697 mmHg 60%
    08:00 +3°C° 0 mm 2 mps 697 mmHg 56%
    09:00 +4°C° 0 mm 3 mps 697 mmHg 50%
    10:00 +7°C° 0 mm 3 mps 697 mmHg 45%
    11:00 +8°C° 0 mm 4 mps 697 mmHg 40%
    12:00 +9°C° 0 mm 5 mps 696 mmHg 38%
    13:00 +9°C° 0 mm 5 mps 696 mmHg 37%
    14:00 +10°C° 0 mm 6 mps 695 mmHg 36%
    15:00 +10°C° 0 mm 5 mps 695 mmHg 37%
    16:00 +9°C° 0 mm 5 mps 694 mmHg 39%
    17:00 +9°C° 0 mm 5 mps 694 mmHg 41%
    18:00 +7°C° 0 mm 4 mps 694 mmHg 48%
    19:00 +5°C° 0 mm 3 mps 694 mmHg 54%
    20:00 +5°C° 0 mm 2 mps 693 mmHg 61%
    21:00 +4°C° 0 mm 2 mps 693 mmHg 63%
    22:00 +5°C° 0 mm 1 mps 693 mmHg 66%
    23:00 +4°C° 0 mm 1 mps 693 mmHg 68%

    31 March, Sunday

    Time Temperature Precipitation Wind Pressure Humidity
    00:00 +4°C° 0 mm 1 mps 693 mmHg 69%
    01:00 +4°C° 0 mm 1 mps 692 mmHg 70%
    02:00 +3°C° 0 mm 1 mps 692 mmHg 71%
    03:00 +3°C° 0 mm 1 mps 692 mmHg 73%
    04:00 +3°C° 0 mm 1 mps 691 mmHg 74%
    05:00 +3°C° 0 mm 1 mps 691 mmHg 76%
    06:00 +4°C° 0 mm 1 mps 691 mmHg 73%
    07:00 +5°C° 0 mm 1 mps 691 mmHg 69%
    08:00 +6°C° 0 mm 1 mps 691 mmHg 65%
    09:00 +7°C° 0 mm 2 mps 691 mmHg 60%
    10:00 +9°C° 0 mm 3 mps 691 mmHg 54%
    11:00 +11°C° 0 mm 3 mps 691 mmHg 48%
    12:00 +11°C° 0 mm 3 mps 690 mmHg 45%
    13:00 +12°C° 0 mm 3 mps 690 mmHg 42%
    14:00 +13°C° 0 mm 3 mps 689 mmHg 39%
    15:00 +13°C° 0 mm 3 mps 689 mmHg 39%
    16:00 +13°C° 0 mm 3 mps 689 mmHg 40%
    17:00 +12°C° 0 mm 3 mps 688 mmHg 41%
    18:00 +11°C° 0 mm 3 mps 688 mmHg 48%
    19:00 +9°C° 0 mm 2 mps 688 mmHg 55%
    20:00 +8°C° 0 mm 1 mps 688 mmHg 61%
    21:00 +7°C° 0 mm 1 mps 688 mmHg 65%
    22:00 +6°C° 0 mm 1 mps 688 mmHg 68%
    23:00 +5°C° 0 mm 0 mps 688 mmHg 71%
    Show more